Date,TemperatureHighF,TemperatureAvgF,TemperatureLowF,DewpointHighF,DewpointAvgF,DewpointLowF,HumidityHigh,HumidityAvg,HumidityLow,PressureMaxIn,PressureMinIn,WindSpeedMaxMPH,WindSpeedAvgMPH,GustSpeedMaxMPH,PrecipitationSumIn
2014-2-1,62.5,54.4,43.4,60.6,53.0,42.9,100,95,84,30.12,30.04,18,11,23,0.01
2014-2-2,62.0,60.1,54.0,62.0,59.9,53.7,100,99,97,30.09,29.95,22,15,25,0.01
2014-2-3,62.1,52.4,46.7,62.1,51.7,46.4,100,98,92,30.12,29.95,27,18,31,0.15
2014-2-4,63.2,54.2,46.4,63.2,54.2,45.9,100,100,98,30.09,29.91,28,14,30,0.00
2014-2-5,63.2,53.0,43.2,63.2,49.1,38.1,100,87,68,30.27,29.91,26,11,29,0.14
2014-2-6,43.9,38.6,36.9,39.4,34.2,30.6,92,84,76,30.33,30.23,33,21,37,0.02
2014-2-7,49.7,42.3,36.0,44.5,38.1,33.5,94,85,76,30.34,30.19,28,18,32,0.02
2014-2-8,56.8,49.0,44.9,51.5,45.6,41.1,97,88,76,30.24,30.13,23,10,25,0.06
2014-2-9,60.1,53.0,47.8,55.7,51.1,47.5,99,94,81,30.20,30.08,9,5,23,0.01
2014-2-10,63.9,57.6,51.7,61.1,56.4,51.2,99,96,89,30.14,30.04,22,6,25,0.00
2014-2-11,51.5,47.2,44.9,51.0,46.7,43.8,100,98,96,30.10,29.97,33,26,36,0.15
2014-2-12,50.1,46.4,43.4,49.8,45.8,41.8,99,98,93,30.00,29.80,32,14,36,1.20
2014-2-13,53.8,44.6,38.0,45.7,40.9,35.6,96,87,68,30.06,29.90,15,9,18,0.00
2014-2-14,59.0,53.6,45.4,56.7,48.6,42.3,95,84,64,30.04,29.86,20,9,24,0.00
2014-2-15,59.3,52.2,45.5,56.8,44.3,38.5,92,75,59,30.20,29.88,21,6,26,0.00
2014-2-16,61.3,54.8,47.8,56.8,51.0,45.6,97,87,63,30.22,30.13,10,4,17,0.00
2014-2-17,65.4,60.3,56.6,63.0,58.9,55.8,98,95,90,30.18,30.11,13,8,17,0.01
2014-2-18,66.7,61.4,57.6,64.9,60.9,57.5,100,98,93,30.20,30.09,15,5,17,0.02
2014-2-19,67.6,62.6,60.1,67.0,62.5,60.1,100,100,98,30.13,30.01,11,6,17,0.00
2014-2-20,68.1,63.2,60.5,66.9,62.9,60.5,100,99,96,30.02,29.97,18,12,20,0.01
2014-2-21,64.5,57.6,53.3,64.5,47.5,40.7,100,70,51,30.12,29.85,32,17,40,1.01
2014-2-22,61.5,57.4,53.9,53.9,46.3,39.4,85,67,49,30.17,30.04,22,12,23,0.00
2014-2-23,65.4,61.7,58.7,65.4,61.1,53.9,100,98,84,30.06,29.94,15,6,17,1.90
2014-2-24,65.9,60.4,56.4,61.2,59.2,56.4,100,96,79,30.13,29.99,24,7,26,0.00
2014-2-25,59.8,58.9,58.0,59.4,58.6,57.7,99,99,98,30.07,30.03,8,2,17,0.01
2014-2-27,50.3,46.2,39.8,40.8,32.6,28.1,81,59,46,30.11,30.00,15,4,20,0.00
2014-2-28,48.3,47.1,46.8,39.8,36.8,35.0,76,67,63,30.05,30.04,1,0,20,0.00